This is the latest recevied weather packets stored in our database for station/object KB9HUO. If no packets are shown the sender has not sent any weather packets the latest 1 day(s).
| Time | Temp. | Humidity | Pressure | Rain* | Wind** | Luminosity | Snow |
|---|---|---|---|---|---|---|---|
| 1778018077 | 16.11° C | 97% | 1007.9 hPa | 4.32 mm | 0 m/s | 15 W/m² | - |
| 1778017775 | 16.11° C | 97% | 1008.1 hPa | 3.05 mm | 0 m/s | 8 W/m² | - |
| 1778017472 | 16.11° C | 97% | 1007.8 hPa | 3.56 mm | 0.45 m/s, 236° | 24 W/m² | - |
| 1778017169 | 16.11° C | 97% | 1007.8 hPa | 4.83 mm | 0.89 m/s, 230° | 13 W/m² | - |
| 1778016867 | 16.11° C | 97% | 1007.8 hPa | 6.1 mm | 0.89 m/s, 236° | 20 W/m² | - |
| 1778016563 | 16.11° C | 97% | 1007.7 hPa | 6.1 mm | 0.89 m/s, 253° | 25 W/m² | - |
| 1778016260 | 16.11° C | 97% | 1007.7 hPa | 1.27 mm | 0.89 m/s, 246° | 24 W/m² | - |
| 1778015956 | 16.11° C | 97% | 1007.6 hPa | 0 mm | 0.45 m/s, 240° | 42 W/m² | - |
| 1778015654 | 16.11° C | 97% | 1007.8 hPa | 0 mm | 0.45 m/s, 234° | 22 W/m² | - |
| 1778015350 | 16.11° C | 97% | 1007.6 hPa | 0 mm | 0.89 m/s, 229° | 21 W/m² | - |
| 1778015048 | 16.11° C | 96% | 1007.8 hPa | 0 mm | 0.45 m/s, 225° | 43 W/m² | - |
| 1778014744 | 16.11° C | 96% | 1007.9 hPa | 1.78 mm | 0.89 m/s, 229° | 38 W/m² | - |
| 1778014442 | 16.11° C | 96% | 1007.9 hPa | 6.1 mm | 0.45 m/s, 229° | 42 W/m² | - |
| 1778014139 | 16.11° C | 96% | 1008 hPa | 8.89 mm | 0.89 m/s, 229° | 27 W/m² | - |
| 1778013837 | 16.11° C | 96% | 1008.3 hPa | 7.87 mm | 0.45 m/s, 238° | 47 W/m² | - |
| 1778013534 | 16.11° C | 96% | 1008.2 hPa | 10.67 mm | 0 m/s | 36 W/m² | - |
| 1778013230 | 16.11° C | 96% | 1008.2 hPa | 15.49 mm | 0 m/s | 34 W/m² | - |
| 1778012927 | 16.11° C | 96% | 1008.4 hPa | 10.67 mm | 0.89 m/s, 226° | 36 W/m² | - |
| 1778012623 | 16.11° C | 96% | 1008.1 hPa | 10.16 mm | 0.89 m/s, 234° | 37 W/m² | - |
| 1778012320 | 16.67° C | 95% | 1008.4 hPa | 18.03 mm | 0.89 m/s, 227° | 43 W/m² | - |
| 1778012017 | 16.67° C | 95% | 1008.4 hPa | 18.54 mm | 1.34 m/s, 193° | 84 W/m² | - |
| 1778011715 | 16.67° C | 95% | 1008.7 hPa | 8.89 mm | 0.89 m/s, 227° | 44 W/m² | - |
| 1778011412 | 16.67° C | 95% | 1008.6 hPa | 3.05 mm | 1.34 m/s, 186° | 35 W/m² | - |
| 1778011107 | 16.67° C | 95% | 1008.4 hPa | 1.27 mm | 0.89 m/s, 242° | 61 W/m² | - |
| 1778010805 | 16.67° C | 95% | 1008.6 hPa | 1.27 mm | 0.89 m/s, 242° | 46 W/m² | - |
* Rain latest hour (hover to see other rain measurements)
** Current wind speed in m/s (hover to see current wind gust speed)